Location: ??
(34.9170°N, 135.5016°E)
Time: 10:01:04
(UTC+00:00)

Explorer 7 - Pass Details

Date: 05 March 2021
Orbit: 484 x 677 km, 50.3° (Epoch: 14 April)

Event Time Altitude Azimuth Distance (km) Brightness Sun altitude
Rises 01:47:49 0° 176° (S) 2,999 11.2 44.8°
Reaches altitude 10° 01:52:03 10° 141° (SE) 2,066 10.8 45.2°
Maximum altitude 01:53:18 11° 126° (SE) 1,994 10.5 45.3°
Drops below altitude 10° 01:54:33 10° 110° (ESE) 2,048 10.4 45.4°
Sets 01:58:40 0° 75° (ENE) 2,917 10.6 45.8°
